GW6978 Weather Reports


time (UTC)temp
C
wind
direction
speed
KPH
gust
KPH
rain 1hr
cm
rain 24hr
cm
rain mn
cm
humidity
%
barometer
mb
20260507063326 22 253 0.0 1.6 0.00 0.00 0.00 81 1022.1
20260507063249 22 253 0.0 1.6 0.00 0.00 0.00 80 1022.1
20260507063150 22 253 0.0 1.6 0.00 0.00 0.00 80 1022.2
20260507063032 22 253 0.0 1.6 0.00 0.00 0.00 80 1022.1
20260507062954 22 253 0.0 1.6 0.00 0.00 0.00 80 1022.2
20260507062857 22 253 0.0 1.6 0.00 0.00 0.00 80 1022.2
20260507062722 23 253 0.0 1.6 0.00 0.00 0.00 80 1022.2
20260507062624 23 253 0.0 1.6 0.00 0.00 0.00 80 1022.2
20260507062528 23 253 0.0 0.0 0.00 0.00 0.00 80 1022.2
20260507062431 23 253 0.0 0.0 0.00 0.00 0.00 80 1022.3
20260507062333 23 253 0.0 0.0 0.00 0.00 0.00 80 1022.2
20260507062217 23 253 0.0 0.0 0.00 0.00 0.00 80 1022.3
20260507062124 23 253 0.0 0.0 0.00 0.00 0.00 80 1022.3
20260507062046 23 253 0.0 1.6 0.00 0.00 0.00 80 1022.4
20260507061949 23 253 0.0 3.2 0.00 0.00 0.00 80 1022.4
20260507061831 23 253 0.0 3.2 0.00 0.00 0.00 80 1022.5
20260507061734 23 253 0.0 3.2 0.00 0.00 0.00 80 1022.4
20260507061636 23 253 0.0 3.2 0.00 0.00 0.00 80 1022.4
20260507061517 23 253 0.0 3.2 0.00 0.00 0.00 80 1022.4
20260507061419 23 253 0.0 3.2 0.00 0.00 0.00 80 1022.4
20260507061321 23 253 0.0 3.2 0.00 0.00 0.00 80 1022.5
20260507061229 23 253 1.6 3.2 0.00 0.00 0.00 80 1022.5
20260507061133 23 253 1.6 3.2 0.00 0.00 0.00 80 1022.4
20260507061018 23 253 0.0 3.2 0.00 0.00 0.00 80 1022.6
20260507060920 23 253 0.0 3.2 0.00 0.00 0.00 80 1022.4
20260507060822 23 253 0.0 4.8 0.00 0.00 0.00 80 1022.4
20260507060725 23 253 0.0 4.8 0.00 0.00 0.00 80 1022.5
20260507060632 23 253 0.0 4.8 0.00 0.00 0.00 80 1022.5
20260507060535 23 253 0.0 4.8 0.00 0.00 0.00 80 1022.6
20260507060418 23 253 0.0 6.4 0.00 0.00 0.00 80 1022.6
20260507060320 23 253 0.0 6.4 0.00 0.00 0.00 80 1022.5
20260507060223 23 253 1.6 6.4 0.00 0.00 0.00 80 1022.6
20260507060146 23 253 1.6 6.4 0.00 0.00 0.00 80 1022.6
20260507060047 23 253 3.2 6.4 0.00 0.00 0.00 80 1022.7
20260507055922 23 253 3.2 6.4 0.00 0.00 0.00 80 1022.7
20260507055825 23 253 3.2 6.4 0.00 0.00 0.00 80 1022.7
20260507055728 23 253 3.2 6.4 0.00 0.00 0.00 80 1022.7
20260507055632 23 254 3.2 6.4 0.00 0.00 0.00 80 1022.8
20260507055555 23 257 3.2 4.8 0.00 0.00 0.00 80 1022.8
20260507055457 23 259 1.6 4.8 0.00 0.00 0.00 80 1022.8
20260507055319 23 259 1.6 4.8 0.00 0.00 0.00 80 1022.8
20260507055222 23 259 3.2 4.8 0.00 0.00 0.00 80 1022.8
20260507055129 23 259 3.2 4.8 0.00 0.00 0.00 80 1022.8
20260507055031 23 259 1.6 4.8 0.00 0.00 0.00 80 1022.8
20260507054935 23 259 3.2 4.8 0.00 0.00 0.00 80 1022.8
20260507054819 23 259 3.2 4.8 0.00 0.00 0.00 80 1022.8
20260507054742 23 258 1.6 4.8 0.00 0.00 0.00 80 1022.7
20260507054646 23 257 1.6 4.8 0.00 0.00 0.00 80 1022.7
20260507054529 23 257 0.0 3.2 0.00 0.00 0.00 80 1022.8
20260507054417 23 257 0.0 3.2 0.00 0.00 0.00 80 1022.8
20260507054341 23 257 0.0 3.2 0.00 0.00 0.00 80 1022.8
20260507054244 23 257 0.0 3.2 0.00 0.00 0.00 80 1022.7
20260507054123 23 257 0.0 0.0 0.00 0.00 0.00 80 1022.8
20260507054025 23 256 0.0 0.0 0.00 0.00 0.00 80 1022.8
20260507053928 23 256 0.0 0.0 0.00 0.00 0.00 80 1022.8
20260507053832 23 256 0.0 0.0 0.00 0.00 0.00 80 1022.7
20260507053717 23 256 0.0 0.0 0.00 0.00 0.00 80 1022.8
20260507053621 23 256 0.0 0.0 0.00 0.00 0.00 80 1022.8
20260507053524 23 256 0.0 0.0 0.00 0.00 0.00 80 1022.9
20260507053427 23 256 0.0 1.6 0.00 0.00 0.00 80 1022.8
20260507053331 23 255 0.0 1.6 0.00 0.00 0.00 80 1022.8
20260507053234 23 256 0.0 3.2 0.00 0.00 0.00 80 1022.9
20260507053122 23 255 0.0 3.2 0.00 0.00 0.00 80 1022.8
20260507053025 23 255 0.0 3.2 0.00 0.00 0.00 80 1022.9
20260507052927 23 256 0.0 3.2 0.00 0.00 0.00 80 1022.9
20260507052830 23 256 0.0 4.8 0.00 0.00 0.00 80 1022.9
20260507052753 23 256 0.0 4.8 0.00 0.00 0.00 80 1022.9
20260507052656 23 256 0.0 4.8 0.00 0.00 0.00 79 1022.8
20260507052600 23 256 1.6 4.8 0.00 0.00 0.00 79 1023.0
20260507052502 23 256 1.6 4.8 0.00 0.00 0.00 79 1022.9
20260507052327 23 256 1.6 4.8 0.00 0.00 0.00 79 1022.9
20260507052234 23 255 1.6 4.8 0.00 0.00 0.00 79 1022.8
20260507052118 23 255 3.2 4.8 0.00 0.00 0.00 79 1023.0
20260507052022 23 256 1.6 4.8 0.00 0.00 0.00 79 1023.0
20260507051926 23 256 1.6 3.2 0.00 0.00 0.00 79 1023.0
20260507051848 23 256 1.6 3.2 0.00 0.00 0.00 79 1022.9
20260507051751 23 256 1.6 3.2 0.00 0.00 0.00 79 1023.0
20260507051632 23 256 1.6 3.2 0.00 0.00 0.00 79 1023.0
20260507051540 23 256 1.6 3.2 0.00 0.00 0.00 79 1023.1
20260507051441 23 256 1.6 3.2 0.00 0.00 0.00 79 1023.0
20260507051324 23 255 0.0 3.2 0.00 0.00 0.00 79 1023.0
20260507051225 23 254 0.0 3.2 0.00 0.00 0.00 79 1022.9
20260507051128 23 254 0.0 4.8 0.00 0.00 0.00 79 1023.0
20260507051032 23 254 0.0 4.8 0.00 0.00 0.00 79 1023.1
20260507050917 23 254 1.6 4.8 0.00 0.00 0.00 79 1023.1
20260507050825 23 254 0.0 4.8 0.00 0.00 0.00 79 1023.1
20260507050729 23 255 0.0 4.8 0.00 0.00 0.00 79 1023.1
20260507050629 23 255 1.6 4.8 0.00 0.00 0.00 79 1023.2
20260507050532 23 255 1.6 4.8 0.00 0.00 0.00 79 1023.1
20260507050437 23 255 1.6 4.8 0.00 0.00 0.00 79 1023.2
20260507050318 23 255 3.2 4.8 0.00 0.00 0.00 79 1023.2
20260507050220 23 255 3.2 4.8 0.00 0.00 0.00 79 1023.2
20260507050127 23 255 3.2 4.8 0.00 0.00 0.00 79 1023.1
20260507050030 23 255 3.2 4.8 0.00 0.00 0.00 79 1023.1
20260507045933 23 255 3.2 4.8 0.00 0.00 0.00 79 1023.1
20260507045817 23 256 3.2 4.8 0.00 0.00 0.00 79 1023.1
20260507045721 23 255 1.6 4.8 0.00 0.00 0.00 79 1023.2
20260507045625 23 255 0.0 3.2 0.00 0.00 0.00 79 1023.1
20260507045533 24 255 0.0 0.0 0.00 0.00 0.00 79 1023.1
20260507045416 24 255 0.0 0.0 0.00 0.00 0.00 79 1023.1
20260507045319 24 255 0.0 0.0 0.00 0.00 0.00 79 1023.1
20260507045221 24 255 0.0 0.0 0.00 0.00 0.00 79 1023.1
20260507045124 24 255 0.0 1.6 0.00 0.00 0.00 79 1023.1
20260507045027 24 255 0.0 1.6 0.00 0.00 0.00 79 1023.1
20260507044930 24 255 0.0 1.6 0.00 0.00 0.00 79 1023.1
20260507044817 24 255 0.0 1.6 0.00 0.00 0.00 79 1023.0
20260507044718 24 255 0.0 1.6 0.00 0.00 0.00 79 1023.1
20260507044622 24 255 0.0 1.6 0.00 0.00 0.00 79 1023.1
20260507044526 24 255 0.0 1.6 0.00 0.00 0.00 79 1023.1
20260507044429 24 255 0.0 3.2 0.00 0.00 0.00 78 1023.2
20260507044332 24 255 0.0 3.2 0.00 0.00 0.00 78 1023.2
20260507044256 24 255 0.0 3.2 0.00 0.00 0.00 78 1023.1
20260507044122 24 255 0.0 3.2 0.00 0.00 0.00 78 1023.2
20260507044026 24 255 0.0 3.2 0.00 0.00 0.00 78 1023.1
20260507043928 24 255 0.0 3.2 0.00 0.00 0.00 78 1023.1
20260507043834 24 255 0.0 3.2 0.00 0.00 0.00 78 1023.2
20260507043756 24 255 1.6 3.2 0.00 0.00 0.00 78 1023.1
20260507043618 24 255 1.6 3.2 0.00 0.00 0.00 78 1023.1
20260507043524 24 255 1.6 4.8 0.00 0.00 0.00 78 1023.1
20260507043447 24 255 0.0 4.8 0.00 0.00 0.00 78 1023.1
20260507043348 24 255 0.0 4.8 0.00 0.00 0.00 78 1023.0
20260507043230 24 255 0.0 4.8 0.00 0.00 0.00 78 1023.1
20260507043132 24 255 0.0 4.8 0.00 0.00 0.00 78 1023.1
20260507043054 24 255 0.0 4.8 0.00 0.00 0.00 77 1023.1
20260507042956 24 255 1.6 4.8 0.00 0.00 0.00 77 1023.1
20260507042819 24 255 3.2 4.8 0.00 0.00 0.00 77 1023.1
20260507042722 24 255 3.2 4.8 0.00 0.00 0.00 77 1023.2
20260507042630 24 255 3.2 3.2 0.00 0.00 0.00 77 1023.0
20260507042553 24 255 1.6 3.2 0.00 0.00 0.00 77 1023.1
20260507042434 24 255 3.2 3.2 0.00 0.00 0.00 77 1023.1
20260507042336 24 255 1.6 3.2 0.00 0.00 0.00 77 1023.1
20260507042220 24 255 1.6 3.2 0.00 0.00 0.00 77 1023.1
20260507042123 24 255 0.0 1.6 0.00 0.00 0.00 77 1023.1
20260507042025 24 255 0.0 3.2 0.00 0.00 0.00 77 1023.1
20260507041931 24 255 0.0 3.2 0.00 0.00 0.00 77 1023.1
20260507041816 24 255 0.0 3.2 0.00 0.00 0.00 77 1023.1
20260507041719 24 255 0.0 4.8 0.00 0.00 0.00 77 1023.1
20260507041642 24 255 0.0 4.8 0.00 0.00 0.00 77 1023.1
20260507041544 24 255 0.0 4.8 0.00 0.00 0.00 77 1023.0
20260507041445 24 255 0.0 4.8 0.00 0.00 0.00 77 1023.2
20260507041328 24 255 0.0 4.8 0.00 0.00 0.00 77 1023.1
20260507041231 24 255 1.6 4.8 0.00 0.00 0.00 77 1023.2
20260507041118 24 255 1.6 4.8 0.00 0.00 0.00 77 1023.1
20260507041042 24 255 1.6 4.8 0.00 0.00 0.00 77 1023.0
20260507040943 24 256 1.6 4.8 0.00 0.00 0.00 77 1023.2
20260507040824 24 254 3.2 4.8 0.00 0.00 0.00 77 1023.2
20260507040726 24 254 3.2 4.8 0.00 0.00 0.00 77 1023.1
20260507040630 24 254 3.2 4.8 0.00 0.00 0.00 77 1023.2
20260507040534 24 254 3.2 4.8 0.00 0.00 0.00 77 1023.2
20260507040422 24 254 3.2 4.8 0.00 0.00 0.00 77 1023.2
20260507040323 24 254 3.2 4.8 0.00 0.00 0.00 77 1023.2
20260507040226 24 254 1.6 4.8 0.00 0.00 0.00 77 1023.2
20260507040149 24 254 0.0 4.8 0.00 0.00 0.00 77 1023.1
20260507040031 25 253 0.0 4.8 0.00 0.00 0.00 77 1023.2
20260507035934 24 253 0.0 4.8 0.00 0.00 0.00 77 1023.1
20260507035857 24 253 0.0 4.8 0.00 0.00 0.00 77 1023.2
20260507035722 24 253 0.0 4.8 0.00 0.00 0.00 77 1023.3
20260507035625 24 253 1.6 4.8 0.00 0.00 0.00 77 1023.1
20260507035528 24 252 1.6 4.8 0.00 0.00 0.00 77 1023.2
20260507035431 24 253 1.6 4.8 0.00 0.00 0.00 77 1023.2
20260507035333 24 252 1.6 4.8 0.00 0.00 0.00 77 1023.1
20260507035236 24 252 1.6 6.4 0.00 0.00 0.00 77 1023.2
20260507035139 24 253 0.0 6.4 0.00 0.00 0.00 77 1023.1
20260507035042 24 253 1.6 6.4 0.00 0.00 0.00 77 1023.2
20260507034929 24 253 1.6 6.4 0.00 0.00 0.00 77 1023.2
20260507034832 24 253 1.6 6.4 0.00 0.00 0.00 77 1023.2
20260507034736 24 253 1.6 6.4 0.00 0.00 0.00 77 1023.3
20260507034619 24 253 1.6 6.4 0.00 0.00 0.00 77 1023.2
20260507034523 24 253 3.2 6.4 0.00 0.00 0.00 77 1023.2
20260507034426 24 253 3.2 6.4 0.00 0.00 0.00 77 1023.2
20260507034333 24 232 1.6 6.4 0.00 0.00 0.00 77 1023.2
20260507034235 24 232 1.6 6.4 0.00 0.00 0.00 77 1023.2
20260507034138 24 232 3.2 6.4 0.00 0.00 0.00 77 1023.2
20260507034018 24 238 3.2 6.4 0.00 0.00 0.00 77 1023.2
20260507033922 24 243 3.2 6.4 0.00 0.00 0.00 77 1023.1
20260507033823 24 243 1.6 6.4 0.00 0.00 0.00 77 1023.1
20260507033727 24 239 1.6 6.4 0.00 0.00 0.00 76 1023.1
20260507033633 24 240 1.6 6.4 0.00 0.00 0.00 76 1023.1
20260507033535 24 239 1.6 6.4 0.00 0.00 0.00 76 1023.1
20260507033419 24 239 3.2 6.4 0.00 0.00 0.00 76 1023.1
20260507033321 24 267 4.8 6.4 0.00 0.00 0.00 76 1023.1
20260507033224 24 269 3.2 6.4 0.00 0.00 0.00 76 1023.2
20260507033127 24 271 3.2 6.4 0.00 0.00 0.00 76 1023.1
20260507033029 24 236 3.2 6.4 0.00 0.00 0.00 76 1023.1
20260507032931 24 236 3.2 6.4 0.00 0.00 0.00 76 1023.0
20260507032819 24 234 3.2 6.4 0.00 0.00 0.00 76 1023.0
20260507032720 24 267 4.8 6.4 0.00 0.00 0.00 76 1023.1
20260507032624 24 265 4.8 6.4 0.00 0.00 0.00 76 1023.0
20260507032527 24 221 3.2 11.3 0.00 0.00 0.00 76 1023.0
20260507032429 24 286 1.6 11.3 0.00 0.00 0.00 76 1022.9
20260507032333 24 275 1.6 11.3 0.00 0.00 0.00 76 1022.9
20260507032234 24 275 3.2 11.3 0.00 0.00 0.00 76 1022.9
20260507032135 24 275 3.2 11.3 0.00 0.00 0.00 76 1022.9
20260507032023 24 248 3.2 11.3 0.00 0.00 0.00 76 1022.8
20260507031928 24 247 3.2 11.3 0.00 0.00 0.00 76 1023.0
20260507031851 24 265 4.8 11.3 0.00 0.00 0.00 77 1022.9
20260507031734 24 254 4.8 11.3 0.00 0.00 0.00 77 1022.8
20260507031616 24 244 3.2 11.3 0.00 0.00 0.00 77 1022.9
20260507031520 24 240 3.2 11.3 0.00 0.00 0.00 77 1022.8
20260507031423 24 259 3.2 11.3 0.00 0.00 0.00 77 1022.8
20260507031329 24 260 3.2 11.3 0.00 0.00 0.00 77 1022.8
20260507031233 24 233 4.8 11.3 0.00 0.00 0.00 77 1022.8
20260507031136 24 242 4.8 11.3 0.00 0.00 0.00 77 1022.8
20260507031019 24 275 3.2 11.3 0.00 0.00 0.00 77 1022.8
20260507030924 24 274 4.8 11.3 0.00 0.00 0.00 77 1022.8
20260507030847 24 234 3.2 11.3 0.00 0.00 0.00 77 1022.8
20260507030727 24 259 4.8 11.3 0.00 0.00 0.00 77 1022.7
20260507030630 24 239 4.8 11.3 0.00 0.00 0.00 78 1022.7
20260507030536 24 281 4.8 9.7 0.00 0.00 0.00 78 1022.7
20260507030420 24 269 3.2 14.5 0.00 0.00 0.00 78 1022.8
20260507030324 24 286 3.2 14.5 0.00 0.00 0.00 78 1022.8
20260507030229 24 257 3.2 14.5 0.00 0.00 0.00 78 1022.7
20260507030131 24 246 4.8 14.5 0.00 0.00 0.00 78 1022.8
20260507030020 24 254 4.8 14.5 0.00 0.00 0.00 78 1022.7
20260507025921 24 242 3.2 14.5 0.00 0.00 0.00 78 1022.6
20260507025822 24 229 4.8 14.5 0.00 0.00 0.00 78 1022.6
20260507025724 24 231 4.8 14.5 0.00 0.00 0.00 78 1022.7
20260507025628 24 206 4.8 14.5 0.00 0.00 0.00 78 1022.7
20260507025531 24 260 4.8 14.5 0.00 0.00 0.00 78 1022.6
20260507025436 24 240 4.8 8.0 0.00 0.00 0.00 78 1022.7
20260507025319 24 270 3.2 8.0 0.00 0.00 0.00 78 1022.7
20260507025228 24 225 3.2 8.0 0.00 0.00 0.00 78 1022.7
20260507025151 24 240 4.8 8.0 0.00 0.00 0.00 78 1022.7
20260507025033 24 255 4.8 6.4 0.00 0.00 0.00 78 1022.8
20260507024917 24 269 4.8 6.4 0.00 0.00 0.00 78 1022.8
20260507024820 24 269 4.8 6.4 0.00 0.00 0.00 78 1022.8
20260507024724 24 297 3.2 8.0 0.00 0.00 0.00 78 1022.7
20260507024628 24 219 3.2 8.0 0.00 0.00 0.00 78 1022.7
20260507024535 24 222 3.2 9.7 0.00 0.00 0.00 78 1022.7
20260507024418 24 222 3.2 9.7 0.00 0.00 0.00 78 1022.6
20260507024342 24 221 3.2 9.7 0.00 0.00 0.00 78 1022.6
20260507024245 24 221 3.2 9.7 0.00 0.00 0.00 78 1022.7
20260507024127 24 222 3.2 9.7 0.00 0.00 0.00 78 1022.7
20260507024031 24 222 3.2 9.7 0.00 0.00 0.00 78 1022.6
20260507023931 24 218 3.2 9.7 0.00 0.00 0.00 78 1022.6
20260507023838 24 262 4.8 9.7 0.00 0.00 0.00 78 1022.7
20260507023719 24 280 4.8 9.7 0.00 0.00 0.00 78 1022.6
20260507023620 24 248 3.2 8.0 0.00 0.00 0.00 78 1022.6
20260507023524 24 250 3.2 8.0 0.00 0.00 0.00 78 1022.6
20260507023428 24 251 3.2 8.0 0.00 0.00 0.00 78 1022.4
20260507023329 24 260 3.2 8.0 0.00 0.00 0.00 78 1022.5
20260507023231 24 260 3.2 8.0 0.00 0.00 0.00 78 1022.4
20260507023119 24 261 3.2 8.0 0.00 0.00 0.00 78 1022.4
20260507023025 24 263 3.2 8.0 0.00 0.00 0.00 78 1022.4
20260507022926 24 269 3.2 8.0 0.00 0.00 0.00 78 1022.4
20260507022828 24 270 3.2 8.0 0.00 0.00 0.00 78 1022.4
20260507022733 24 214 3.2 8.0 0.00 0.00 0.00 78 1022.4
20260507022636 24 264 3.2 11.3 0.00 0.00 0.00 78 1022.4
20260507022518 24 267 3.2 11.3 0.00 0.00 0.00 78 1022.3
20260507022425 24 266 4.8 11.3 0.00 0.00 0.00 78 1022.4
20260507022328 24 252 3.2 11.3 0.00 0.00 0.00 78 1022.3
20260507022251 24 298 3.2 11.3 0.00 0.00 0.00 77 1022.3
20260507022132 24 262 3.2 12.9 0.00 0.00 0.00 77 1022.3
20260507022016 24 275 4.8 12.9 0.00 0.00 0.00 77 1022.3
20260507021920 24 281 6.4 12.9 0.00 0.00 0.00 77 1022.3
20260507021823 24 282 6.4 12.9 0.00 0.00 0.00 77 1022.3
20260507021729 24 257 4.8 12.9 0.00 0.00 0.00 77 1022.3
20260507021630 24 287 4.8 12.9 0.00 0.00 0.00 77 1022.3
20260507021532 24 268 4.8 12.9 0.00 0.00 0.00 77 1022.3
20260507021453 24 271 4.8 12.9 0.00 0.00 0.00 77 1022.3
20260507021335 24 228 4.8 12.9 0.00 0.00 0.00 77 1022.3
20260507021217 24 221 3.2 11.3 0.00 0.00 0.00 77 1022.3
20260507021119 24 244 1.6 17.7 0.00 0.00 0.00 77 1022.3
20260507021022 24 247 1.6 17.7 0.00 0.00 0.00 77 1022.3
20260507020929 24 247 3.2 17.7 0.00 0.00 0.00 77 1022.3
20260507020833 24 248 3.2 17.7 0.00 0.00 0.00 77 1022.2
20260507020736 24 232 4.8 17.7 0.00 0.00 0.00 77 1022.3
20260507020618 24 276 6.4 17.7 0.00 0.00 0.00 77 1022.2
20260507020519 24 256 6.4 17.7 0.00 0.00 0.00 77 1022.3
20260507020443 24 257 6.4 17.7 0.00 0.00 0.00 77 1022.3
20260507020326 24 255 8.0 17.7 0.00 0.00 0.00 78 1022.2
20260507020232 24 267 4.8 12.9 0.00 0.00 0.00 78 1022.2
20260507020134 24 252 4.8 11.3 0.00 0.00 0.00 78 1022.2
20260507020035 24 273 4.8 11.3 0.00 0.00 0.00 78 1022.1
20260507015956 24 209 4.8 11.3 0.00 0.00 0.00 78 1022.2
20260507015820 24 263 4.8 11.3 0.00 0.00 0.00 78 1022.0
20260507015723 24 304 4.8 11.3 0.00 0.00 0.00 78 1022.1
20260507015627 24 277 4.8 11.3 0.00 0.00 0.00 78 1022.1
20260507015532 24 279 4.8 11.3 0.00 0.00 0.00 78 1022.2
20260507015419 24 273 6.4 11.3 0.00 0.00 0.00 78 1022.2
20260507015322 24 269 6.4 9.7 0.00 0.00 0.00 78 1022.1
20260507015226 24 261 4.8 11.3 0.00 0.00 0.00 78 1022.1
20260507015150 24 259 4.8 11.3 0.00 0.00 0.00 78 1022.1
20260507015051 24 253 4.8 11.3 0.00 0.00 0.00 78 1022.1
20260507014934 24 257 4.8 12.9 0.00 0.00 0.00 78 1022.1
20260507014821 24 225 3.2 12.9 0.00 0.00 0.00 78 1022.2
20260507014723 24 231 3.2 12.9 0.00 0.00 0.00 78 1022.1
20260507014625 24 232 3.2 12.9 0.00 0.00 0.00 78 1022.1
20260507014528 24 234 3.2 12.9 0.00 0.00 0.00 78 1022.3
20260507014431 24 231 4.8 12.9 0.00 0.00 0.00 78 1022.2
20260507014334 24 231 4.8 12.9 0.00 0.00 0.00 78 1022.3
20260507014238 24 256 6.4 12.9 0.00 0.00 0.00 78 1022.3
20260507014140 24 274 6.4 12.9 0.00 0.00 0.00 78 1022.3
20260507014026 24 315 4.8 11.3 0.00 0.00 0.00 78 1022.2
20260507013930 24 286 6.4 11.3 0.00 0.00 0.00 78 1022.2
20260507013834 24 268 6.4 12.9 0.00 0.00 0.00 78 1022.3
20260507013718 24 290 6.4 12.9 0.00 0.00 0.00 78 1022.2
20260507013621 24 242 6.4 12.9 0.00 0.00 0.00 78 1022.4
20260507013523 24 243 4.8 12.9 0.00 0.00 0.00 78 1022.2
20260507013432 24 230 4.8 12.9 0.00 0.00 0.00 78 1022.1
20260507013334 24 286 4.8 12.9 0.00 0.00 0.00 78 1022.1
20260507013238 24 207 4.8 16.1 0.00 0.00 0.00 78 1022.1
20260507013120 24 250 6.4 16.1 0.00 0.00 0.00 79 1022.1
20260507013023 24 274 4.8 16.1 0.00 0.00 0.00 79 1022.0
20260507012926 24 300 6.4 16.1 0.00 0.00 0.00 79 1022.1
20260507012828 24 270 6.4 16.1 0.00 0.00 0.00 79 1022.2
20260507012729 24 305 8.0 16.1 0.00 0.00 0.00 79 1022.1
20260507012632 24 269 8.0 16.1 0.00 0.00 0.00 79 1022.2
20260507012518 24 281 8.0 16.1 0.00 0.00 0.00 79 1022.1
20260507012441 24 255 8.0 16.1 0.00 0.00 0.00 79 1022.1
20260507012323 24 278 6.4 12.9 0.00 0.00 0.00 79 1021.9
20260507012226 24 262 6.4 12.9 0.00 0.00 0.00 79 1022.0
20260507012129 24 254 6.4 12.9 0.00 0.00 0.00 79 1021.9
20260507012053 24 266 8.0 12.9 0.00 0.00 0.00 79 1021.8
20260507011956 24 269 6.4 12.9 0.00 0.00 0.00 79 1021.8
20260507011822 24 276 4.8 11.3 0.00 0.00 0.00 79 1021.9
20260507011725 24 252 4.8 11.3 0.00 0.00 0.00 79 1021.8
20260507011627 24 275 3.2 11.3 0.00 0.00 0.00 79 1021.9
20260507011529 24 270 4.8 11.3 0.00 0.00 0.00 79 1021.8
20260507011432 24 239 4.8 11.3 0.00 0.00 0.00 79 1021.9
20260507011335 24 167 4.8 11.3 0.00 0.00 0.00 80 1021.8
20260507011217 24 250 4.8 11.3 0.00 0.00 0.00 79 1021.9
20260507011123 24 275 6.4 11.3 0.00 0.00 0.00 80 1021.9
20260507011026 24 288 6.4 14.5 0.00 0.00 0.00 80 1021.8
20260507010927 24 234 6.4 14.5 0.00 0.00 0.00 80 1021.8
20260507010829 24 270 4.8 14.5 0.00 0.00 0.00 80 1021.8
20260507010730 24 234 4.8 14.5 0.00 0.00 0.00 80 1021.8
20260507010634 24 194 4.8 14.5 0.00 0.00 0.00 80 1021.8
20260507010517 24 231 4.8 14.5 0.00 0.00 0.00 80 1021.9
20260507010418 24 238 4.8 14.5 0.00 0.00 0.00 80 1021.8
20260507010320 24 257 6.4 14.5 0.00 0.00 0.00 80 1021.7
20260507010226 24 250 6.4 14.5 0.00 0.00 0.00 80 1021.6
20260507010128 24 288 6.4 14.5 0.00 0.00 0.00 80 1021.6
20260507010029 24 279 6.4 12.9 0.00 0.00 0.00 80 1021.7
20260507005933 24 252 6.4 11.3 0.00 0.00 0.00 80 1021.7
20260507005855 24 256 4.8 11.3 0.00 0.00 0.00 80 1021.6
20260507005718 24 275 3.2 14.5 0.00 0.00 0.00 80 1021.7
20260507005621 24 267 1.6 14.5 0.00 0.00 0.00 80 1021.6
20260507005529 24 265 3.2 14.5 0.00 0.00 0.00 80 1021.5
20260507005433 24 267 4.8 14.5 0.00 0.00 0.00 80 1021.6
20260507005335 24 267 4.8 14.5 0.00 0.00 0.00 80 1021.5
20260507005219 24 281 4.8 14.5 0.00 0.00 0.00 79 1021.4
20260507005121 24 231 4.8 14.5 0.00 0.00 0.00 79 1021.5
20260507005023 24 277 6.4 14.5 0.00 0.00 0.00 79 1021.5
20260507004927 24 250 6.4 14.5 0.00 0.00 0.00 79 1021.4
20260507004855 24 252 8.0 14.5 0.00 0.00 0.00 79 1021.4
20260507004758 24 283 8.0 12.9 0.00 0.00 0.00 79 1021.4
20260507004617 24 216 8.0 12.9 0.00 0.00 0.00 79 1021.4
20260507004520 24 238 8.0 12.9 0.00 0.00 0.00 79 1021.3
20260507004422 24 251 6.4 12.9 0.00 0.00 0.00 79 1021.4
20260507004346 24 275 6.4 14.5 0.00 0.00 0.00 79 1021.2
20260507004226 24 262 6.4 14.5 0.00 0.00 0.00 79 1021.3
20260507004149 24 276 6.4 11.3 0.00 0.00 0.00 79 1021.3
20260507004050 24 259 6.4 9.7 0.00 0.00 0.00 79 1021.3
20260507003918 24 229 1.6 9.7 0.00 0.00 0.00 79 1021.2
20260507003821 24 241 0.0 9.7 0.00 0.00 0.00 79 1021.1
20260507003723 24 242 1.6 9.7 0.00 0.00 0.00 79 1021.1
20260507003645 24 242 3.2 9.7 0.00 0.00 0.00 79 1021.0
20260507003549 24 242 4.8 9.7 0.00 0.00 0.00 79 1021.0
20260507003428 24 215 3.2 16.1 0.00 0.00 0.00 78 1021.1
20260507003350 24 244 3.2 16.1 0.00 0.00 0.00 78 1021.1
20260507003233 24 244 6.4 16.1 0.00 0.00 0.00 78 1020.9
20260507003119 24 269 4.8 16.1 0.00 0.00 0.00 78 1021.0
20260507003022 24 271 3.2 16.1 0.00 0.00 0.00 78 1021.0
20260507002925 24 277 3.2 16.1 0.00 0.00 0.00 78 1021.0
20260507002828 24 253 4.8 16.1 0.00 0.00 0.00 78 1021.0
20260507002731 24 243 8.0 16.1 0.00 0.00 0.00 78 1020.9
20260507002635 24 246 8.0 16.1 0.00 0.00 0.00 78 1020.9
20260507002521 24 272 6.4 12.9 0.00 0.00 0.00 78 1020.9
20260507002424 24 234 6.4 12.9 0.00 0.00 0.00 78 1020.9
20260507002326 24 256 4.8 12.9 0.00 0.00 0.00 78 1020.8
20260507002251 24 279 4.8 12.9 0.00 0.00 0.00 78 1020.8
20260507002154 24 249 4.8 12.9 0.00 0.00 0.00 78 1020.9
20260507002055 24 232 6.4 12.9 0.00 0.00 0.00 78 1020.8
20260507001938 24 227 6.4 12.9 0.00 0.00 0.00 78 1020.8
20260507001840 24 223 4.8 12.9 0.00 0.00 0.00 78 1020.9
20260507001724 25 227 4.8 12.9 0.00 0.00 0.00 79 1020.9
20260507001632 25 242 6.4 14.5 0.00 0.00 0.00 79 1020.9
20260507001533 25 262 6.4 14.5 0.00 0.00 0.00 79 1020.9
20260507001435 25 247 4.8 14.5 0.00 0.00 0.00 79 1020.9
20260507001320 25 222 4.8 14.5 0.00 0.00 0.00 79 1020.9
20260507001222 25 246 6.4 14.5 0.00 0.00 0.00 79 1021.0
20260507001125 25 262 6.4 14.5 0.00 0.00 0.00 78 1020.9
20260507001028 25 211 6.4 14.5 0.00 0.00 0.00 78 1020.8
20260507000931 25 223 4.8 14.5 0.00 0.00 0.00 78 1020.8
20260507000839 25 220 3.2 14.5 0.00 0.00 0.00 78 1020.8
20260507000741 25 243 3.2 12.9 0.00 0.00 0.00 78 1020.8
20260507000623 25 230 4.8 12.9 0.00 0.00 0.00 78 1020.7
20260507000526 25 230 6.4 12.9 0.00 0.00 0.00 78 1020.7
20260507000429 25 261 6.4 16.1 0.00 0.00 0.00 78 1020.6
20260507000331 25 248 4.8 16.1 0.00 0.00 0.00 78 1020.6
20260507000219 25 261 4.8 16.1 0.00 0.00 0.00 78 1020.6
20260507000120 25 233 4.8 16.1 0.00 0.00 0.00 78 1020.5
20260507000023 25 184 4.8 16.1 0.00 0.00 0.00 78 1020.5
20260506235927 25 184 6.4 16.1 0.00 0.00 0.00 78 1020.5
20260506235830 25 270 8.0 16.1 0.00 0.00 0.00 78 1020.5
20260506235735 25 224 6.4 16.1 0.00 0.00 0.00 77 1020.5
20260506235622 25 237 6.4 16.1 0.00 0.00 0.00 77 1020.5
20260506235546 25 282 8.0 16.1 0.00 0.00 0.00 77 1020.5
20260506235448 25 219 8.0 16.1 0.00 0.00 0.00 77 1020.4
20260506235328 25 230 8.0 16.1 0.00 0.00 0.00 77 1020.4
20260506235231 25 272 4.8 16.1 0.00 0.00 0.00 77 1020.4
20260506235135 25 250 4.8 16.1 0.00 0.00 0.00 77 1020.4
20260506235016 25 246 6.4 16.1 0.00 0.00 0.00 77 1020.3
20260506234920 25 216 6.4 16.1 0.00 0.00 0.00 77 1020.2
20260506234843 25 255 4.8 16.1 0.00 0.00 0.00 77 1020.2
20260506234728 25 226 6.4 16.1 0.00 0.00 0.00 77 1020.2
20260506234630 25 282 8.0 16.1 0.00 0.00 0.00 77 1020.2
20260506234533 25 258 6.4 16.1 0.00 0.00 0.00 77 1020.1
20260506234416 25 244 8.0 16.1 0.00 0.00 0.00 76 1020.2
20260506234320 25 258 8.0 16.1 0.00 0.00 0.00 76 1020.2
20260506234224 25 282 8.0 16.1 0.00 0.00 0.00 76 1020.2
20260506234126 25 248 8.0 16.1 0.00 0.00 0.00 76 1020.1
20260506234033 25 265 6.4 17.7 0.00 0.00 0.00 76 1020.2
20260506233935 25 201 6.4 17.7 0.00 0.00 0.00 76 1020.1
20260506233837 25 265 6.4 17.7 0.00 0.00 0.00 76 1020.0
20260506233740 25 245 6.4 17.7 0.00 0.00 0.00 76 1020.1
20260506233622 25 220 8.0 17.7 0.00 0.00 0.00 75 1020.0
20260506233525 25 209 6.4 17.7 0.00 0.00 0.00 75 1019.8
20260506233429 25 212 8.0 17.7 0.00 0.00 0.00 75 1019.8
20260506233332 26 269 9.7 17.7 0.00 0.00 0.00 75 1019.9
20260506233219 26 259 9.7 17.7 0.00 0.00 0.00 75 1019.8
20260506233123 26 232 6.4 14.5 0.00 0.00 0.00 75 1019.9
20260506233045 26 207 4.8 11.3 0.00 0.00 0.00 76 1019.7
20260506232926 26 184 3.2 11.3 0.00 0.00 0.00 76 1019.7
20260506232830 26 240 4.8 11.3 0.00 0.00 0.00 76 1019.8
20260506232732 26 234 6.4 11.3 0.00 0.00 0.00 76 1019.8
20260506232621 26 180 4.8 12.9 0.00 0.00 0.00 76 1019.7
20260506232523 26 248 3.2 12.9 0.00 0.00 0.00 76 1019.7
20260506232446 26 234 4.8 12.9 0.00 0.00 0.00 76 1019.7
20260506232329 26 250 6.4 12.9 0.00 0.00 0.00 75 1019.8
20260506232233 26 182 6.4 12.9 0.00 0.00 0.00 75 1019.8
20260506232157 26 250 6.4 12.9 0.00 0.00 0.00 75 1019.9
20260506232037 26 263 6.4 14.5 0.00 0.00 0.00 76 1019.7
20260506231922 26 270 3.2 19.3 0.00 0.00 0.00 76 1019.8
20260506231825 26 235 4.8 19.3 0.00 0.00 0.00 76 1019.8
20260506231729 26 235 6.4 19.3 0.00 0.00 0.00 76 1019.7
20260506231629 26 277 6.4 19.3 0.00 0.00 0.00 76 1019.6
20260506231532 26 272 6.4 19.3 0.00 0.00 0.00 76 1019.7
20260506231433 26 228 8.0 19.3 0.00 0.00 0.00 75 1019.6
20260506231335 26 192 8.0 19.3 0.00 0.00 0.00 75 1019.6
20260506231219 26 269 8.0 19.3 0.00 0.00 0.00 75 1019.6
20260506231127 26 251 9.7 19.3 0.00 0.00 0.00 75 1019.7
20260506231030 26 220 9.7 16.1 0.00 0.00 0.00 75 1019.7
20260506230932 26 252 6.4 14.5 0.00 0.00 0.00 75 1019.7
20260506230819 26 196 4.8 16.1 0.00 0.00 0.00 75 1019.7
20260506230723 26 248 6.4 16.1 0.00 0.00 0.00 75 1019.7
20260506230627 26 198 8.0 16.1 0.00 0.00 0.00 75 1019.7
20260506230528 26 271 8.0 16.1 0.00 0.00 0.00 75 1019.8
20260506230432 26 274 8.0 16.1 0.00 0.00 0.00 75 1019.8
20260506230338 26 267 8.0 16.1 0.00 0.00 0.00 75 1019.8
20260506230219 26 280 8.0 16.1 0.00 0.00 0.00 75 1019.7
20260506230121 26 223 4.8 12.9 0.00 0.00 0.00 75 1019.9
20260506230045 26 250 6.4 12.9 0.00 0.00 0.00 75 1019.9
20260506225926 26 254 4.8 16.1 0.00 0.00 0.00 74 1019.9
20260506225829 26 203 6.4 16.1 0.00 0.00 0.00 74 1019.8
20260506225731 26 236 6.4 17.7 0.00 0.00 0.00 74 1019.9
20260506225634 26 254 6.4 17.7 0.00 0.00 0.00 74 1020.0
20260506225540 26 236 4.8 17.7 0.00 0.00 0.00 75 1020.0
20260506225441 26 288 3.2 17.7 0.00 0.00 0.00 75 1019.9
20260506225323 26 277 4.8 19.3 0.00 0.00 0.00 75 1019.9
20260506225225 26 286 8.0 19.3 0.00 0.00 0.00 74 1020.0
20260506225128 26 227 9.7 19.3 0.00 0.00 0.00 74 1020.0
20260506225044 26 270 8.0 19.3 0.00 0.00 0.00 74 1020.0
20260506224817 26 242 8.0 19.3 0.00 0.00 0.00 74 1019.9
20260506224740 26 290 9.7 19.3 0.00 0.00 0.00 74 1020.0
20260506224643 27 261 11.3 19.3 0.00 0.00 0.00 74 1019.8
20260506224526 27 242 11.3 19.3 0.00 0.00 0.00 74 1019.9
20260506224429 27 266 6.4 19.3 0.00 0.00 0.00 74 1019.9
20260506224332 27 244 4.8 17.7 0.00 0.00 0.00 74 1019.9
20260506224255 27 186 4.8 17.7 0.00 0.00 0.00 74 1019.9
20260506224121 27 276 8.0 17.7 0.00 0.00 0.00 74 1019.9
20260506224024 27 186 8.0 17.7 0.00 0.00 0.00 74 1020.0
20260506223927 27 229 6.4 17.7 0.00 0.00 0.00 74 1019.9
20260506223831 27 244 8.0 17.7 0.00 0.00 0.00 73 1019.9
20260506223755 27 225 9.7 17.7 0.00 0.00 0.00 73 1019.9
20260506223657 27 277 8.0 16.1 0.00 0.00 0.00 73 1019.9
20260506223520 27 221 8.0 14.5 0.00 0.00 0.00 73 1019.9
20260506223422 27 286 8.0 14.5 0.00 0.00 0.00 73 1019.9
20260506223329 27 259 9.7 14.5 0.00 0.00 0.00 73 1019.9
20260506223231 27 246 9.7 14.5 0.00 0.00 0.00 73 1019.8
20260506223135 27 199 6.4 12.9 0.00 0.00 0.00 73 1019.8
20260506223017 27 282 4.8 12.9 0.00 0.00 0.00 73 1019.7
20260506222921 27 185 4.8 12.9 0.00 0.00 0.00 73 1019.8
20260506222824 27 218 3.2 12.9 0.00 0.00 0.00 73 1019.8
20260506222731 27 261 4.8 12.9 0.00 0.00 0.00 73 1019.9
20260506222635 27 279 6.4 12.9 0.00 0.00 0.00 73 1019.8
20260506222538 27 265 4.8 12.9 0.00 0.00 0.00 73 1020.1
20260506222420 27 215 6.4 14.5 0.00 0.00 0.00 73 1019.8
20260506222324 27 171 6.4 14.5 0.00 0.00 0.00 73 1019.8
20260506222246 27 209 8.0 14.5 0.00 0.00 0.00 73 1019.9
20260506222129 27 273 6.4 14.5 0.00 0.00 0.00 73 1019.9
20260506222016 27 185 6.4 14.5 0.00 0.00 0.00 73 1019.9
20260506221939 27 280 4.8 16.1 0.00 0.00 0.00 73 1019.9
20260506221841 27 281 4.8 16.1 0.00 0.00 0.00 73 1019.9
20260506221723 27 215 6.4 16.1 0.00 0.00 0.00 73 1020.0
20260506221627 27 202 8.0 16.1 0.00 0.00 0.00 73 1019.9
20260506221550 27 256 8.0 16.1 0.00 0.00 0.00 73 1019.9
20260506221431 27 213 6.4 19.3 0.00 0.00 0.00 73 1020.0
20260506221318 27 239 3.2 19.3 0.00 0.00 0.00 73 1019.9
20260506221221 27 224 4.8 19.3 0.00 0.00 0.00 73 1019.8
20260506221120 27 113 6.4 19.3 0.00 0.00 0.00 73 1019.9
20260506221023 27 217 8.0 19.3 0.00 0.00 0.00 72 1019.9
20260506220924 27 191 8.0 19.3 0.00 0.00 0.00 72 1019.9
20260506220826 27 38 8.0 19.3 0.00 0.00 0.00 72 1019.8
20260506220727 27 146 6.4 19.3 0.00 0.00 0.00 72 1019.8
20260506220631 27 212 6.4 19.3 0.00 0.00 0.00 72 1019.9
20260506220518 27 146 4.8 16.1 0.00 0.00 0.00 72 1019.8
20260506220419 27 164 6.4 20.9 0.00 0.00 0.00 72 1019.8
20260506220321 27 268 8.0 20.9 0.00 0.00 0.00 71 1019.9
20260506220223 27 196 8.0 20.9 0.00 0.00 0.00 71 1019.8
20260506220127 27 174 6.4 20.9 0.00 0.00 0.00 71 1019.9
20260506220029 27 259 6.4 20.9 0.00 0.00 0.00 71 1019.8
20260506215931 27 248 3.2 20.9 0.00 0.00 0.00 71 1019.8
20260506215851 27 284 3.2 20.9 0.00 0.00 0.00 72 1019.7
20260506215717 27 138 4.8 20.9 0.00 0.00 0.00 71 1019.6
20260506215641 27 272 9.7 20.9 0.00 0.00 0.00 71 1019.7
20260506215522 27 301 9.7 20.9 0.00 0.00 0.00 71 1019.6
20260506215444 27 267 9.7 19.3 0.00 0.00 0.00 71 1019.7
20260506215346 27 234 9.7 19.3 0.00 0.00 0.00 71 1019.8
20260506215228 27 265 8.0 19.3 0.00 0.00 0.00 71 1019.6
20260506215130 27 247 8.0 19.3 0.00 0.00 0.00 71 1019.7
20260506215033 27 215 8.0 19.3 0.00 0.00 0.00 71 1019.7
20260506214917 27 211 4.8 19.3 0.00 0.00 0.00 71 1019.7
20260506214826 27 276 4.8 19.3 0.00 0.00 0.00 71 1019.7
20260506214728 27 219 9.7 19.3 0.00 0.00 0.00 71 1019.7
20260506214631 27 219 11.3 19.3 0.00 0.00 0.00 71 1019.7
20260506214531 27 254 11.3 17.7 0.00 0.00 0.00 71 1019.6
20260506214433 27 225 8.0 17.7 0.00 0.00 0.00 71 1019.7
20260506214336 27 266 6.4 17.7 0.00 0.00 0.00 71 1019.7
20260506214219 27 211 8.0 17.7 0.00 0.00 0.00 71 1019.6
20260506214121 27 203 8.0 17.7 0.00 0.00 0.00 70 1019.7
20260506214029 27 217 8.0 17.7 0.00 0.00 0.00 70 1019.7
20260506213930 28 211 9.7 17.7 0.00 0.00 0.00 70 1019.8
20260506213831 28 258 8.0 17.7 0.00 0.00 0.00 70 1019.8
20260506213733 28 219 8.0 16.1 0.00 0.00 0.00 70 1019.8
20260506213634 28 258 11.3 16.1 0.00 0.00 0.00 70 1019.8
20260506213517 28 261 11.3 16.1 0.00 0.00 0.00 70 1019.9
20260506213420 28 269 9.7 16.1 0.00 0.00 0.00 69 1019.8
20260506213328 28 278 11.3 19.3 0.00 0.00 0.00 69 1019.8
20260506213251 28 215 9.7 19.3 0.00 0.00 0.00 69 1019.7
20260506213133 28 232 4.8 19.3 0.00 0.00 0.00 70 1019.7
20260506213032 28 242 3.2 19.3 0.00 0.00 0.00 70 1019.7
20260506212936 28 242 3.2 19.3 0.00 0.00 0.00 70 1019.8
20260506212839 28 47 4.8 19.3 0.00 0.00 0.00 70 1019.8
20260506212721 28 264 6.4 19.3 0.00 0.00 0.00 70 1019.8
20260506212623 28 229 9.7 19.3 0.00 0.00 0.00 70 1019.8
20260506212529 28 228 8.0 19.3 0.00 0.00 0.00 70 1019.8
20260506212431 28 304 8.0 17.7 0.00 0.00 0.00 70 1019.9
20260506212332 28 244 11.3 17.7 0.00 0.00 0.00 70 1019.9
20260506212256 28 252 11.3 17.7 0.00 0.00 0.00 70 1019.9
20260506212157 28 257 8.0 16.1 0.00 0.00 0.00 70 1019.8
20260506212018 28 161 6.4 16.1 0.00 0.00 0.00 71 1019.9
20260506211922 28 186 4.8 17.7 0.00 0.00 0.00 71 1019.8
20260506211829 28 225 4.8 17.7 0.00 0.00 0.00 71 1019.8
20260506211731 27 244 3.2 17.7 0.00 0.00 0.00 71 1019.9
20260506211635 27 295 4.8 17.7 0.00 0.00 0.00 71 1019.9
20260506211538 27 232 8.0 17.7 0.00 0.00 0.00 71 1019.9
20260506211418 27 342 8.0 17.7 0.00 0.00 0.00 71 1019.9
20260506211322 27 240 6.4 17.7 0.00 0.00 0.00 71 1019.9
20260506211244 27 264 6.4 17.7 0.00 0.00 0.00 71 1020.0
20260506211143 27 229 8.0 17.7 0.00 0.00 0.00 71 1020.0
20260506211112 28 236 8.0 17.7 0.00 0.00 0.00 71 1020.0
20260506210925 28 316 6.4 16.1 0.00 0.00 0.00 71 1020.0
20260506210829 28 241 8.0 16.1 0.00 0.00 0.00 71 1020.0
20260506210754 28 146 8.0 16.1 0.00 0.00 0.00 71 1020.0
20260506210634 28 207 6.4 16.1 0.00 0.00 0.00 71 1020.0
20260506210536 28 213 11.3 16.1 0.00 0.00 0.00 71 1020.1
20260506210418 28 186 12.9 19.3 0.00 0.00 0.00 71 1019.9
20260506210326 28 270 11.3 19.3 0.00 0.00 0.00 71 1020.0
20260506210229 28 171 11.3 20.9 0.00 0.00 0.00 71 1020.1
20260506210132 28 232 11.3 17.7 0.00 0.00 0.00 71 1020.0
20260506210052 28 198 8.0 16.1 0.00 0.00 0.00 71 1019.9
20260506205953 28 253 4.8 19.3 0.00 0.00 0.00 71 1020.1
20260506205816 28 215 4.8 19.3 0.00 0.00 0.00 71 1020.0
20260506205720 28 269 4.8 19.3 0.00 0.00 0.00 71 1020.0
20260506205628 28 185 6.4 19.3 0.00 0.00 0.00 70 1020.0
20260506205532 28 217 8.0 19.3 0.00 0.00 0.00 70 1020.1
20260506205434 28 142 8.0 19.3 0.00 0.00 0.00 70 1020.0
20260506205318 28 199 9.7 19.3 0.00 0.00 0.00 70 1020.0
20260506205221 28 231 11.3 19.3 0.00 0.00 0.00 71 1020.1
20260506205126 28 230 11.3 19.3 0.00 0.00 0.00 71 1020.1
20260506205032 28 175 8.0 20.9 0.00 0.00 0.00 71 1020.1
20260506204953 28 206 4.8 16.1 0.00 0.00 0.00 71 1020.1
20260506204854 28 184 6.4 16.1 0.00 0.00 0.00 71 1020.0
20260506204716 28 193 6.4 16.1 0.00 0.00 0.00 71 1020.0
20260506204620 28 279 4.8 20.9 0.00 0.00 0.00 72 1019.9
20260506204524 28 131 6.4 20.9 0.00 0.00 0.00 71 1020.1
20260506204427 28 191 8.0 20.9 0.00 0.00 0.00 71 1020.0
20260506204334 28 209 9.7 20.9 0.00 0.00 0.00 71 1020.0
20260506204236 28 213 9.7 20.9 0.00 0.00 0.00 71 1020.1
20260506204118 28 211 8.0 20.9 0.00 0.00 0.00 70 1020.2
20260506204021 28 194 8.0 20.9 0.00 0.00 0.00 70 1020.1
20260506203924 28 119 11.3 20.9 0.00 0.00 0.00 69 1020.2
20260506203828 28 227 11.3 20.9 0.00 0.00 0.00 69 1020.3
20260506203733 28 195 9.7 22.5 0.00 0.00 0.00 68 1020.1
20260506203618 29 164 6.4 16.1 0.00 0.00 0.00 69 1020.2
20260506203520 29 172 6.4 19.3 0.00 0.00 0.00 69 1020.1
20260506203424 29 121 4.8 19.3 0.00 0.00 0.00 69 1020.1
20260506203329 28 232 3.2 19.3 0.00 0.00 0.00 69 1020.3
20260506203232 28 115 3.2 19.3 0.00 0.00 0.00 69 1020.1
20260506203135 28 102 1.6 19.3 0.00 0.00 0.00 69 1020.1
20260506203017 28 184 4.8 19.3 0.00 0.00 0.00 69 1020.3
20260506202923 28 184 8.0 19.3 0.00 0.00 0.00 68 1020.2
20260506202827 28 252 11.3 19.3 0.00 0.00 0.00 68 1020.3
20260506202731 28 243 9.7 19.3 0.00 0.00 0.00 68 1020.3
20260506202632 29 254 6.4 17.7 0.00 0.00 0.00 68 1020.2
20260506202535 28 257 6.4 17.7 0.00 0.00 0.00 68 1020.3
20260506202418 28 223 6.4 17.7 0.00 0.00 0.00 69 1020.4
20260506202320 28 213 4.8 17.7 0.00 0.00 0.00 69 1020.4
20260506202223 28 188 4.8 17.7 0.00 0.00 0.00 70 1020.3
20260506202126 28 47 6.4 22.5 0.00 0.00 0.00 69 1020.3
20260506202029 28 202 8.0 22.5 0.00 0.00 0.00 69 1020.3
20260506201932 28 200 9.7 22.5 0.00 0.00 0.00 69 1020.3
20260506201835 28 257 6.4 22.5 0.00 0.00 0.00 69 1020.3
20260506201723 28 213 4.8 22.5 0.00 0.00 0.00 69 1020.4
20260506201621 28 259 8.0 22.5 0.00 0.00 0.00 69 1020.4
20260506201524 28 228 9.7 22.5 0.00 0.00 0.00 68 1020.4
20260506201427 28 239 11.3 22.5 0.00 0.00 0.00 68 1020.5
20260506201327 29 248 9.7 22.5 0.00 0.00 0.00 68 1020.4
20260506201229 29 254 8.0 22.5 0.00 0.00 0.00 68 1020.4
20260506201132 29 269 6.4 17.7 0.00 0.00 0.00 68 1020.4
20260506201017 29 179 6.4 25.7 0.00 0.00 0.00 68 1020.5
20260506200921 29 113 8.0 25.7 0.00 0.00 0.00 68 1020.4
20260506200842 29 228 9.7 25.7 0.00 0.00 0.00 68 1020.4
20260506200744 29 285 8.0 25.7 0.00 0.00 0.00 68 1020.4
20260506200625 29 206 6.4 25.7 0.00 0.00 0.00 68 1020.3
20260506200521 29 267 6.4 25.7 0.00 0.00 0.00 68 1020.5
20260506200424 29 164 8.0 25.7 0.00 0.00 0.00 68 1020.4
20260506200327 29 209 8.0 25.7 0.00 0.00 0.00 68 1020.4
20260506200230 29 240 9.7 25.7 0.00 0.00 0.00 68 1020.4
20260506200117 29 192 8.0 25.7 0.00 0.00 0.00 68 1020.4
20260506200019 29 254 3.2 17.7 0.00 0.00 0.00 68 1020.3
20260506195921 29 204 4.8 17.7 0.00 0.00 0.00 68 1020.4
20260506195823 29 210 6.4 17.7 0.00 0.00 0.00 68 1020.4
20260506195725 29 182 4.8 19.3 0.00 0.00 0.00 69 1020.5
20260506195629 28 228 4.8 19.3 0.00 0.00 0.00 69 1020.5
20260506195529 28 225 6.4 19.3 0.00 0.00 0.00 69 1020.5
20260506195434 28 194 6.4 19.3 0.00 0.00 0.00 69 1020.5
20260506195317 28 188 9.7 19.3 0.00 0.00 0.00 69 1020.5
20260506195220 28 219 9.7 19.3 0.00 0.00 0.00 69 1020.6
20260506195124 28 275 9.7 19.3 0.00 0.00 0.00 68 1020.5
20260506195049 28 236 11.3 19.3 0.00 0.00 0.00 68 1020.5
20260506194927 28 186 8.0 19.3 0.00 0.00 0.00 68 1020.6
20260506194830 28 200 6.4 16.1 0.00 0.00 0.00 68 1020.6
20260506194717 29 221 8.0 16.1 0.00 0.00 0.00 68 1020.6
20260506194620 29 229 6.4 16.1 0.00 0.00 0.00 68 1020.6
20260506194523 29 228 8.0 16.1 0.00 0.00 0.00 68 1020.5
20260506194427 29 198 6.4 16.1 0.00 0.00 0.00 68 1020.6
20260506194329 29 196 6.4 16.1 0.00 0.00 0.00 67 1020.6
20260506194230 29 213 6.4 16.1 0.00 0.00 0.00 67 1020.6
20260506194133 29 140 8.0 19.3 0.00 0.00 0.00 67 1020.5
20260506194019 29 209 8.0 19.3 0.00 0.00 0.00 67 1020.6
20260506193921 29 202 8.0 25.7 0.00 0.00 0.00 68 1020.6
20260506193823 29 204 6.4 25.7 0.00 0.00 0.00 67 1020.5
20260506193746 29 198 8.0 25.7 0.00 0.00 0.00 68 1020.6
20260506193649 29 261 6.4 25.7 0.00 0.00 0.00 67 1020.5
20260506193530 29 189 6.4 25.7 0.00 0.00 0.00 69 1020.7
20260506193452 29 189 8.0 25.7 0.00 0.00 0.00 68 1020.6
20260506193354 29 217 9.7 25.7 0.00 0.00 0.00 68 1020.5
20260506193221 29 250 12.9 25.7 0.00 0.00 0.00 68 1020.5
20260506193126 29 255 9.7 25.7 0.00 0.00 0.00 68 1020.5
20260506193028 29 121 8.0 24.1 0.00 0.00 0.00 69 1020.7
20260506192933 29 295 6.4 17.7 0.00 0.00 0.00 68 1020.6
20260506192835 29 286 8.0 17.7 0.00 0.00 0.00 68 1020.6
20260506192737 29 172 6.4 17.7 0.00 0.00 0.00 68 1020.7
20260506192618 29 113 6.4 17.7 0.00 0.00 0.00 68 1020.6
20260506192523 29 211 6.4 17.7 0.00 0.00 0.00 68 1020.7
20260506192420 29 232 8.0 17.7 0.00 0.00 0.00 68 1020.7
20260506192342 29 201 8.0 20.9 0.00 0.00 0.00 68 1020.7
20260506192244 29 236 9.7 20.9 0.00 0.00 0.00 68 1020.8
20260506192144 29 216 9.7 20.9 0.00 0.00 0.00 68 1020.8
20260506192108 29 276 9.7 20.9 0.00 0.00 0.00 68 1020.8
20260506192011 29 192 8.0 20.9 0.00 0.00 0.00 69 1020.8
20260506191912 29 214 9.7 20.9 0.00 0.00 0.00 68 1020.8
20260506191813 29 206 6.4 22.5 0.00 0.00 0.00 68 1020.7
20260506191736 29 200 6.4 22.5 0.00 0.00 0.00 69 1020.8
20260506141806 26 91 4.8 11.3 0.00 0.00 0.00 75 1022.6
20260506141713 26 84 6.4 11.3 0.00 0.00 0.00 75 1022.6
20260506141616 26 86 4.8 12.9 0.00 0.00 0.00 75 1022.6
20260506141518 26 106 3.2 12.9 0.00 0.00 0.00 75 1022.6
20260506141440 26 96 3.2 12.9 0.00 0.00 0.00 75 1022.6
20260506141321 26 96 3.2 12.9 0.00 0.00 0.00 75 1022.5
20260506141224 26 97 3.2 12.9 0.00 0.00 0.00 75 1022.6
20260506141104 26 97 3.2 12.9 0.00 0.00 0.00 75 1022.6
20260506141010 26 76 4.8 12.9 0.00 0.00 0.00 75 1022.7
20260506140910 26 92 4.8 12.9 0.00 0.00 0.00 75 1022.6
20260506140813 26 95 4.8 12.9 0.00 0.00 0.00 75 1022.6
20260506140714 26 83 4.8 9.7 0.00 0.00 0.00 75 1022.6
20260506140618 26 93 4.8 9.7 0.00 0.00 0.00 75 1022.7
20260506140519 26 109 4.8 12.9 0.00 0.00 0.00 75 1022.6
20260506140421 26 103 4.8 12.9 0.00 0.00 0.00 75 1022.6
20260506140306 26 94 4.8 12.9 0.00 0.00 0.00 75 1022.6
20260506140210 26 114 4.8 12.9 0.00 0.00 0.00 75 1022.6
20260506140133 26 114 4.8 12.9 0.00 0.00 0.00 75 1022.5
20260506140034 26 114 6.4 12.9 0.00 0.00 0.00 75 1022.6
20260506135918 26 119 4.8 12.9 0.00 0.00 0.00 75 1022.5
20260506135820 26 117 6.4 12.9 0.00 0.00 0.00 75 1022.5
20260506135703 26 73 6.4 12.9 0.00 0.00 0.00 76 1022.6
20260506135611 26 107 4.8 9.7 0.00 0.00 0.00 76 1022.4
20260506135515 26 89 4.8 6.4 0.00 0.00 0.00 76 1022.5
20260506135419 26 87 4.8 6.4 0.00 0.00 0.00 76 1022.4
20260506135342 26 76 3.2 6.4 0.00 0.00 0.00 76 1022.4
20260506135203 26 76 1.6 6.4 0.00 0.00 0.00 77 1022.4
20260506135105 26 76 1.6 6.4 0.00 0.00 0.00 77 1022.4
20260506135009 26 76 3.2 6.4 0.00 0.00 0.00 77 1022.4
20260506134916 26 110 3.2 6.4 0.00 0.00 0.00 77 1022.4
20260506134819 26 111 3.2 6.4 0.00 0.00 0.00 77 1022.5
20260506134741 26 112 3.2 6.4 0.00 0.00 0.00 77 1022.4
20260506134622 26 116 1.6 6.4 0.00 0.00 0.00 78 1022.4
20260506134505 26 116 0.0 6.4 0.00 0.00 0.00 78 1022.4
20260506134427 25 116 0.0 6.4 0.00 0.00 0.00 78 1022.4
20260506134328 25 116 0.0 6.4 0.00 0.00 0.00 77 1022.4
20260506134230 25 116 1.6 6.4 0.00 0.00 0.00 78 1022.3
20260506134114 25 116 3.2 6.4 0.00 0.00 0.00 77 1022.3
20260506134015 25 116 3.2 6.4 0.00 0.00 0.00 78 1022.3
20260506133918 25 116 4.8 9.7 0.00 0.00 0.00 78 1022.3
20260506133819 25 116 3.2 9.7 0.00 0.00 0.00 78 1022.3
20260506133721 25 116 3.2 9.7 0.00 0.00 0.00 78 1022.3
20260506133603 25 116 3.2 9.7 0.00 0.00 0.00 78 1022.3
20260506133505 25 116 1.6 9.7 0.00 0.00 0.00 78 1022.3
20260506133412 25 116 1.6 9.7 0.00 0.00 0.00 78 1022.3
20260506133316 25 116 1.6 9.7 0.00 0.00 0.00 78 1022.2
20260506133216 25 116 3.2 9.7 0.00 0.00 0.00 78 1022.2
20260506133137 25 116 4.8 9.7 0.00 0.00 0.00 79 1022.2
20260506133018 25 116 4.8 9.7 0.00 0.00 0.00 79 1022.2
20260506132920 25 146 3.2 6.4 0.00 0.00 0.00 79 1022.2
20260506132842 25 146 4.8 6.4 0.00 0.00 0.00 79 1022.2
20260506132706 25 146 1.6 6.4 0.00 0.00 0.00 80 1022.2
20260506132608 25 248 0.0 1.6 0.00 0.00 0.00 80 1022.2
20260506132511 25 250 0.0 1.6 0.00 0.00 0.00 80 1022.2
20260506132414 25 250 0.0 1.6 0.00 0.00 0.00 81 1022.3
20260506132316 24 250 0.0 1.6 0.00 0.00 0.00 81 1022.3
20260506132218 24 251 0.0 3.2 0.00 0.00 0.00 81 1022.2
20260506132120 24 251 0.0 3.2 0.00 0.00 0.00 81 1022.2
20260506132008 24 250 0.0 3.2 0.00 0.00 0.00 81 1022.2
20260506131929 24 251 0.0 3.2 0.00 0.00 0.00 81 1022.2
20260506131811 23 251 0.0 3.2 0.00 0.00 0.00 81 1022.2
20260506131714 23 251 0.0 3.2 0.00 0.00 0.00 81 1022.2
20260506131636 23 251 1.6 3.2 0.00 0.00 0.00 81 1022.1
20260506131513 23 251 1.6 3.2 0.00 0.00 0.00 82 1022.1
20260506131414 23 251 1.6 3.2 0.00 0.00 0.00 82 1022.2
20260506131316 23 251 1.6 3.2 0.00 0.00 0.00 82 1022.2
20260506131224 23 251 0.0 3.2 0.00 0.00 0.00 82 1022.2
20260506131106 23 251 0.0 0.0 0.00 0.00 0.00 82 1022.2
20260506131008 23 251 0.0 0.0 0.00 0.00 0.00 82 1022.3
20260506130908 23 251 0.0 0.0 0.00 0.00 0.00 82 1022.2
20260506130810 23 251 0.0 0.0 0.00 0.00 0.00 82 1022.2
20260506130712 23 251 0.0 0.0 0.00 0.00 0.00 82 1022.3
20260506130636 23 251 0.0 0.0 0.00 0.00 0.00 82 1022.2
20260506130538 23 251 0.0 0.0 0.00 0.00 0.00 82 1022.2
20260506130424 23 251 0.0 0.0 0.00 0.00 0.00 82 1022.2
20260506130325 23 251 0.0 0.0 0.00 0.00 0.00 82 1022.2
20260506130205 23 251 0.0 0.0 0.00 0.00 0.00 82 1022.2
20260506130106 22 251 0.0 0.0 0.00 0.00 0.00 82 1022.1
20260506130008 22 251 0.0 0.0 0.00 0.00 0.00 82 1022.1
20260506125909 22 251 0.0 0.0 0.00 0.00 0.00 82 1022.2
20260506125809 22 251 0.0 0.0 0.00 0.00 0.00 82 1022.1
20260506125733 22 251 0.0 0.0 0.00 0.00 0.00 82 1022.1
20260506125612 22 251 0.0 0.0 0.00 0.00 0.00 82 1022.2
20260506125513 22 251 0.0 0.0 0.00 0.00 0.00 82 1022.2
20260506125416 22 251 0.0 0.0 0.00 0.00 0.00 82 1022.1
20260506125321 22 251 0.0 0.0 0.00 0.00 0.00 82 1022.2
20260506125243 22 251 0.0 0.0 0.00 0.00 0.00 82 1022.2
20260506125105 22 251 0.0 0.0 0.00 0.00 0.00 82 1022.1
20260506125028 22 251 0.0 0.0 0.00 0.00 0.00 82 1022.1
20260506124909 22 251 0.0 0.0 0.00 0.00 0.00 82 1022.0
20260506124809 22 251 0.0 0.0 0.00 0.00 0.00 82 1022.2
20260506124711 22 251 0.0 0.0 0.00 0.00 0.00 82 1022.0
20260506124619 22 251 0.0 0.0 0.00 0.00 0.00 82 1021.9
20260506124522 22 251 0.0 0.0 0.00 0.00 0.00 82 1022.1
20260506124403 22 251 0.0 0.0 0.00 0.00 0.00 82 1022.1
20260506124306 22 251 0.0 0.0 0.00 0.00 0.00 82 1021.9
20260506124208 22 251 0.0 0.0 0.00 0.00 0.00 82 1021.9
20260506124109 22 251 0.0 0.0 0.00 0.00 0.00 83 1021.9
20260506124011 22 251 0.0 0.0 0.00 0.00 0.00 83 1021.9
20260506123916 22 251 0.0 0.0 0.00 0.00 0.00 83 1021.9
20260506123802 22 251 0.0 0.0 0.00 0.00 0.00 83 1021.9
20260506123703 22 251 0.0 0.0 0.00 0.00 0.00 83 1021.8
20260506123605 22 251 0.0 0.0 0.00 0.00 0.00 83 1021.8
20260506123508 22 251 0.0 0.0 0.00 0.00 0.00 83 1021.8
20260506123410 22 251 0.0 0.0 0.00 0.00 0.00 83 1021.8
20260506123312 22 251 0.0 0.0 0.00 0.00 0.00 83 1021.9
20260506123216 22 251 0.0 0.0 0.00 0.00 0.00 83 1021.8
20260506123103 22 251 0.0 0.0 0.00 0.00 0.00 83 1021.9
20260506123007 22 251 0.0 0.0 0.00 0.00 0.00 83 1021.9
20260506122912 22 251 0.0 0.0 0.00 0.00 0.00 83 1021.7
20260506122815 22 251 0.0 0.0 0.00 0.00 0.00 83 1021.9
20260506122718 22 251 0.0 0.0 0.00 0.00 0.00 83 1021.9
20260506122622 22 251 0.0 0.0 0.00 0.00 0.00 83 1021.8
20260506122511 21 251 0.0 0.0 0.00 0.00 0.00 83 1021.8
20260506122412 21 251 0.0 0.0 0.00 0.00 0.00 83 1021.8
20260506122334 21 251 0.0 0.0 0.00 0.00 0.00 83 1021.8
20260506122215 21 251 0.0 0.0 0.00 0.00 0.00 83 1021.8
20260506122118 21 251 0.0 0.0 0.00 0.00 0.00 83 1021.7
20260506122020 21 251 0.0 0.0 0.00 0.00 0.00 83 1021.8
20260506121919 21 251 0.0 0.0 0.00 0.00 0.00 83 1021.7
20260506121805 21 251 0.0 0.0 0.00 0.00 0.00 83 1021.8
20260506121707 21 251 0.0 0.0 0.00 0.00 0.00 83 1021.7
20260506121610 21 251 0.0 0.0 0.00 0.00 0.00 83 1021.7
20260506121513 21 251 0.0 0.0 0.00 0.00 0.00 83 1021.8
20260506121417 21 251 0.0 0.0 0.00 0.00 0.00 83 1021.8
20260506121320 21 251 0.0 0.0 0.00 0.00 0.00 83 1021.7
20260506121203 21 251 0.0 1.6 0.00 0.00 0.00 83 1021.7
20260506121103 21 251 0.0 1.6 0.00 0.00 0.00 83 1021.8
20260506121028 21 251 0.0 1.6 0.00 0.00 0.00 83 1021.7
20260506120930 21 251 0.0 1.6 0.00 0.00 0.00 83 1021.8
20260506120831 21 251 0.0 1.6 0.00 0.00 0.00 83 1021.7
20260506120710 21 251 0.0 1.6 0.00 0.00 0.00 83 1021.8
20260506120614 21 251 0.0 1.6 0.00 0.00 0.00 83 1021.8
20260506120517 21 251 0.0 1.6 0.00 0.00 0.00 83 1021.8
20260506120419 21 251 0.0 1.6 0.00 0.00 0.00 83 1021.9
20260506120320 21 251 0.0 1.6 0.00 0.00 0.00 83 1021.8
20260506120224 21 251 0.0 0.0 0.00 0.00 0.00 83 1021.8
20260506120129 21 251 0.0 0.0 0.00 0.00 0.00 83 1021.8
20260506120009 21 251 0.0 0.0 0.00 0.00 0.00 83 1021.7
20260506115911 21 251 0.0 0.0 0.00 0.00 0.00 83 1021.7
20260506115812 21 251 0.0 0.0 0.00 0.00 0.00 83 1021.8
20260506115714 21 251 0.0 0.0 0.00 0.00 0.00 83 1021.6
20260506115638 21 251 0.0 0.0 0.00 0.00 0.00 83 1021.8
20260506115519 21 251 0.0 0.0 0.00 0.00 0.00 83 1021.7
20260506115422 21 251 0.0 0.0 0.00 0.00 0.00 83 1021.7
20260506115325 21 251 0.0 0.0 0.00 0.00 0.00 83 1021.7
20260506115211 21 251 0.0 0.0 0.00 0.00 0.00 83 1021.8
20260506115114 21 251 0.0 0.0 0.00 0.00 0.00 83 1021.7
20260506115017 21 251 0.0 0.0 0.00 0.00 0.00 83 1021.7
20260506114920 21 251 0.0 0.0 0.00 0.00 0.00 83 1021.6
20260506114842 21 251 0.0 0.0 0.00 0.00 0.00 83 1021.7
20260506114702 21 251 0.0 0.0 0.00 0.00 0.00 83 1021.7
20260506114606 21 251 0.0 0.0 0.00 0.00 0.00 83 1021.6
20260506114511 21 251 0.0 0.0 0.00 0.00 0.00 83 1021.7
20260506114414 21 251 0.0 0.0 0.00 0.00 0.00 83 1021.7
20260506114315 21 251 0.0 0.0 0.00 0.00 0.00 83 1021.7
20260506114219 21 251 0.0 0.0 0.00 0.00 0.00 83 1021.6
20260506114141 21 251 0.0 0.0 0.00 0.00 0.00 83 1021.6
20260506114003 21 251 0.0 0.0 0.00 0.00 0.00 83 1021.7
20260506113904 21 251 0.0 0.0 0.00 0.00 0.00 83 1021.6
20260506113811 21 251 0.0 0.0 0.00 0.00 0.00 83 1021.6
20260506113713 21 251 0.0 0.0 0.00 0.00 0.00 83 1021.6
20260506113614 21 251 0.0 0.0 0.00 0.00 0.00 83 1021.6
20260506113516 21 251 0.0 0.0 0.00 0.00 0.00 83 1021.6
20260506113419 21 251 0.0 0.0 0.00 0.00 0.00 83 1021.6
20260506113302 21 251 0.0 0.0 0.00 0.00 0.00 83 1021.6
20260506113204 21 251 0.0 0.0 0.00 0.00 0.00 83 1021.5
20260506113112 21 251 0.0 0.0 0.00 0.00 0.00 83 1021.5
20260506113014 21 251 0.0 0.0 0.00 0.00 0.00 83 1021.5
20260506112938 21 251 0.0 0.0 0.00 0.00 0.00 83 1021.5
20260506112818 21 251 0.0 0.0 0.00 0.00 0.00 83 1021.5
20260506112740 21 251 0.0 0.0 0.00 0.00 0.00 83 1021.5
20260506112620 21 251 0.0 0.0 0.00 0.00 0.00 83 1021.4
20260506112503 21 251 0.0 0.0 0.00 0.00 0.00 83 1021.5
20260506112405 21 251 0.0 0.0 0.00 0.00 0.00 83 1021.5
20260506112311 21 251 0.0 0.0 0.00 0.00 0.00 83 1021.5
20260506112213 21 251 0.0 0.0 0.00 0.00 0.00 83 1021.5
20260506112117 21 251 0.0 0.0 0.00 0.00 0.00 83 1021.4
20260506112041 21 251 0.0 0.0 0.00 0.00 0.00 83 1021.5
20260506111942 21 251 0.0 0.0 0.00 0.00 0.00 83 1021.4
20260506111843 21 251 0.0 0.0 0.00 0.00 0.00 83 1021.4
20260506111705 21 251 0.0 0.0 0.00 0.00 0.00 83 1021.4
20260506111607 21 251 0.0 0.0 0.00 0.00 0.00 83 1021.4
20260506111513 21 251 0.0 0.0 0.00 0.00 0.00 83 1021.4
20260506111416 21 251 0.0 0.0 0.00 0.00 0.00 83 1021.5
20260506111316 21 251 0.0 0.0 0.00 0.00 0.00 83 1021.4
20260506111218 21 251 0.0 0.0 0.00 0.00 0.00 83 1021.4
20260506111121 21 251 0.0 0.0 0.00 0.00 0.00 83 1021.4
20260506111023 21 251 0.0 0.0 0.00 0.00 0.00 83 1021.4
20260506110927 21 251 0.0 0.0 0.00 0.00 0.00 83 1021.3
20260506110811 21 251 0.0 0.0 0.00 0.00 0.00 83 1021.4
20260506110714 21 251 0.0 0.0 0.00 0.00 0.00 83 1021.3
20260506110616 21 251 0.0 0.0 0.00 0.00 0.00 83 1021.4
20260506110517 21 251 0.0 0.0 0.00 0.00 0.00 83 1021.3
20260506110419 21 251 0.0 0.0 0.00 0.00 0.00 83 1021.3
20260506110340 21 251 0.0 0.0 0.00 0.00 0.00 83 1021.4
20260506110222 21 251 0.0 0.0 0.00 0.00 0.00 83 1021.3
20260506110125 21 251 0.0 0.0 0.00 0.00 0.00 83 1021.2
20260506110025 21 251 0.0 0.0 0.00 0.00 0.00 83 1021.3
20260506105911 21 251 0.0 0.0 0.00 0.00 0.00 83 1021.3
20260506105815 21 251 0.0 0.0 0.00 0.00 0.00 83 1021.3
20260506105717 21 251 0.0 0.0 0.00 0.00 0.00 83 1021.2
20260506105618 21 251 0.0 0.0 0.00 0.00 0.00 83 1021.3
20260506105541 21 251 0.0 0.0 0.00 0.00 0.00 83 1021.3
20260506105443 21 251 0.0 0.0 0.00 0.00 0.00 83 1021.2
20260506105305 21 251 0.0 0.0 0.00 0.00 0.00 83 1021.2
20260506105206 21 251 0.0 0.0 0.00 0.00 0.00 83 1021.3
20260506105132 21 251 0.0 0.0 0.00 0.00 0.00 83 1021.3
20260506105013 21 251 0.0 0.0 0.00 0.00 0.00 83 1021.3
20260506104914 21 251 0.0 0.0 0.00 0.00 0.00 83 1021.2
20260506104818 22 251 0.0 0.0 0.00 0.00 0.00 83 1021.3
20260506104720 22 251 0.0 0.0 0.00 0.00 0.00 83 1021.3
20260506104603 22 251 0.0 0.0 0.00 0.00 0.00 83 1021.3
20260506104504 22 251 0.0 0.0 0.00 0.00 0.00 83 1021.4
20260506104410 22 251 0.0 0.0 0.00 0.00 0.00 83 1021.2
20260506104311 22 251 0.0 0.0 0.00 0.00 0.00 83 1021.3
20260506104215 22 251 0.0 0.0 0.00 0.00 0.00 83 1021.3
20260506104118 22 251 0.0 0.0 0.00 0.00 0.00 83 1021.3
20260506104020 22 251 0.0 0.0 0.00 0.00 0.00 83 1021.2
20260506103942 22 251 0.0 0.0 0.00 0.00 0.00 83 1021.2
20260506103843 22 251 0.0 0.0 0.00 0.00 0.00 83 1021.1
20260506103708 22 251 0.0 0.0 0.00 0.00 0.00 83 1021.2
20260506103631 22 251 0.0 0.0 0.00 0.00 0.00 83 1021.2
20260506103534 22 251 0.0 0.0 0.00 0.00 0.00 83 1021.0
20260506103415 22 251 0.0 3.2 0.00 0.00 0.00 83 1021.1
20260506103317 22 251 0.0 3.2 0.00 0.00 0.00 83 1021.1
20260506103220 22 251 0.0 3.2 0.00 0.00 0.00 83 1021.1
20260506103122 22 251 0.0 3.2 0.00 0.00 0.00 83 1021.0
20260506103024 22 251 0.0 3.2 0.00 0.00 0.00 83 1021.1
20260506102908 22 251 0.0 3.2 0.00 0.00 0.00 83 1021.0
20260506102810 22 251 0.0 3.2 0.00 0.00 0.00 83 1021.1
20260506102712 22 251 1.6 3.2 0.00 0.00 0.00 83 1021.1
20260506102614 22 251 1.6 3.2 0.00 0.00 0.00 83 1021.0
20260506102516 22 251 1.6 3.2 0.00 0.00 0.00 82 1021.1
20260506102417 22 251 1.6 3.2 0.00 0.00 0.00 82 1021.0
20260506102319 22 251 0.0 1.6 0.00 0.00 0.00 82 1021.1
20260506102221 22 251 0.0 0.0 0.00 0.00 0.00 82 1021.0
20260506102109 22 251 0.0 0.0 0.00 0.00 0.00 83 1020.9
20260506102010 22 251 0.0 0.0 0.00 0.00 0.00 83 1021.0
20260506101911 22 251 0.0 0.0 0.00 0.00 0.00 82 1021.0
20260506101833 22 251 0.0 0.0 0.00 0.00 0.00 82 1021.0
20260506101715 22 251 0.0 0.0 0.00 0.00 0.00 82 1020.9
20260506101620 22 251 0.0 0.0 0.00 0.00 0.00 82 1020.9
20260506101502 22 251 0.0 0.0 0.00 0.00 0.00 82 1020.9
20260506101404 22 251 0.0 0.0 0.00 0.00 0.00 82 1020.9
20260506101310 22 251 0.0 0.0 0.00 0.00 0.00 82 1020.9
20260506101213 22 251 0.0 0.0 0.00 0.00 0.00 82 1020.9
20260506101116 22 251 0.0 0.0 0.00 0.00 0.00 82 1020.9
20260506101020 22 251 0.0 0.0 0.00 0.00 0.00 82 1020.8
20260506100904 22 251 0.0 0.0 0.00 0.00 0.00 82 1020.9
20260506100807 22 251 0.0 0.0 0.00 0.00 0.00 82 1020.8
20260506100730 22 251 0.0 0.0 0.00 0.00 0.00 82 1020.8
20260506100636 22 251 0.0 0.0 0.00 0.00 0.00 82 1020.8
20260506100537 22 251 0.0 0.0 0.00 0.00 0.00 82 1020.8
20260506100440 22 251 0.0 0.0 0.00 0.00 0.00 82 1020.8
20260506100320 22 251 0.0 1.6 0.00 0.00 0.00 82 1020.7
20260506100203 22 251 0.0 1.6 0.00 0.00 0.00 82 1020.8
20260506100106 22 251 0.0 3.2 0.00 0.00 0.00 82 1020.8
20260506100008 22 251 0.0 3.2 0.00 0.00 0.00 82 1020.7
20260506095912 22 251 0.0 3.2 0.00 0.00 0.00 82 1020.7
20260506095818 22 251 0.0 3.2 0.00 0.00 0.00 82 1020.8
20260506095741 22 251 0.0 3.2 0.00 0.00 0.00 82 1020.7
20260506095620 22 251 0.0 3.2 0.00 0.00 0.00 82 1020.7
20260506095502 22 251 0.0 3.2 0.00 0.00 0.00 82 1020.7
20260506095406 22 251 1.6 3.2 0.00 0.00 0.00 82 1020.7
20260506095308 22 251 1.6 3.2 0.00 0.00 0.00 82 1020.7
20260506095230 22 251 1.6 3.2 0.00 0.00 0.00 82 1020.8
20260506095131 22 251 1.6 3.2 0.00 0.00 0.00 82 1020.7
20260506095010 22 251 1.6 3.2 0.00 0.00 0.00 82 1020.8
20260506094936 22 251 1.6 3.2 0.00 0.00 0.00 82 1020.7
20260506094837 22 251 1.6 3.2 0.00 0.00 0.00 82 1020.8
20260506094720 22 251 0.0 3.2 0.00 0.00 0.00 82 1020.7
20260506094622 22 251 1.6 3.2 0.00 0.00 0.00 82 1020.7
20260506094504 22 251 1.6 3.2 0.00 0.00 0.00 82 1020.7
20260506094406 22 251 0.0 1.6 0.00 0.00 0.00 82 1020.7
20260506094308 22 251 0.0 1.6 0.00 0.00 0.00 81 1020.7
20260506094211 23 251 0.0 1.6 0.00 0.00 0.00 82 1020.8
20260506094134 23 251 0.0 1.6 0.00 0.00 0.00 81 1020.6
20260506094039 23 251 0.0 1.6 0.00 0.00 0.00 81 1020.7
20260506093922 23 251 0.0 3.2 0.00 0.00 0.00 81 1020.7
20260506093806 23 251 0.0 3.2 0.00 0.00 0.00 81 1020.6
20260506093708 23 251 0.0 3.2 0.00 0.00 0.00 81 1020.7
20260506093609 23 251 1.6 3.2 0.00 0.00 0.00 81 1020.7
20260506093511 23 251 1.6 3.2 0.00 0.00 0.00 81 1020.6
20260506093435 23 251 1.6 3.2 0.00 0.00 0.00 81 1020.6
20260506093337 23 251 1.6 3.2 0.00 0.00 0.00 81 1020.7
20260506093222 23 251 1.6 3.2 0.00 0.00 0.00 81 1020.5
20260506093105 23 251 1.6 3.2 0.00 0.00 0.00 81 1020.7
20260506093028 23 251 0.0 1.6 0.00 0.00 0.00 81 1020.7
20260506092930 23 251 0.0 0.0 0.00 0.00 0.00 81 1020.6
20260506092811 23 251 0.0 0.0 0.00 0.00 0.00 81 1020.7
20260506092713 23 251 0.0 0.0 0.00 0.00 0.00 81 1020.7
20260506092615 23 251 0.0 0.0 0.00 0.00 0.00 81 1020.6
20260506092514 23 251 0.0 0.0 0.00 0.00 0.00 81 1020.7
20260506092414 23 251 0.0 0.0 0.00 0.00 0.00 81 1020.7
20260506092321 23 251 0.0 0.0 0.00 0.00 0.00 81 1020.6
20260506092222 23 251 0.0 0.0 0.00 0.00 0.00 81 1020.6
20260506092105 23 251 0.0 0.0 0.00 0.00 0.00 81 1020.7
20260506092027 23 251 0.0 0.0 0.00 0.00 0.00 81 1020.7
20260506091929 23 251 0.0 0.0 0.00 0.00 0.00 81 1020.5
20260506091830 23 251 0.0 0.0 0.00 0.00 0.00 81 1020.6
20260506091733 23 251 0.0 0.0 0.00 0.00 0.00 81 1020.6
20260506091613 23 251 0.0 0.0 0.00 0.00 0.00 81 1020.6
20260506091514 23 251 0.0 0.0 0.00 0.00 0.00 81 1020.6
20260506091417 23 251 0.0 0.0 0.00 0.00 0.00 81 1020.6
20260506091322 23 251 0.0 0.0 0.00 0.00 0.00 81 1020.5
20260506091204 23 251 0.0 0.0 0.00 0.00 0.00 81 1020.5
20260506091105 23 251 0.0 0.0 0.00 0.00 0.00 81 1020.6
20260506091029 23 251 0.0 0.0 0.00 0.00 0.00 81 1020.6
20260506090911 23 251 0.0 0.0 0.00 0.00 0.00 81 1020.6
20260506090814 23 251 0.0 0.0 0.00 0.00 0.00 81 1020.6
20260506090717 23 251 0.0 0.0 0.00 0.00 0.00 81 1020.5
20260506090624 23 251 0.0 0.0 0.00 0.00 0.00 81 1020.9
20260506090527 23 251 0.0 0.0 0.00 0.00 0.00 81 1020.6
20260506090408 23 251 0.0 0.0 0.00 0.00 0.00 81 1020.5
20260506090309 23 251 0.0 0.0 0.00 0.00 0.00 81 1020.6
20260506090213 23 251 0.0 0.0 0.00 0.00 0.00 81 1020.5
20260506090114 23 251 0.0 0.0 0.00 0.00 0.00 81 1020.5
20260506090016 23 251 0.0 1.6 0.00 0.00 0.00 81 1020.6
20260506085918 23 251 0.0 1.6 0.00 0.00 0.00 81 1020.5
20260506085806 23 251 0.0 1.6 0.00 0.00 0.00 81 1020.5
20260506085708 23 251 0.0 1.6 0.00 0.00 0.00 81 1020.7
20260506085611 23 251 0.0 1.6 0.00 0.00 0.00 81 1020.6
20260506085535 23 251 0.0 1.6 0.00 0.00 0.00 81 1020.6
20260506085418 23 251 0.0 1.6 0.00 0.00 0.00 81 1020.7
20260506085320 23 251 0.0 1.6 0.00 0.00 0.00 81 1020.6
20260506085207 23 251 1.6 3.2 0.00 0.00 0.00 81 1020.6
20260506085109 23 251 1.6 3.2 0.00 0.00 0.00 81 1020.7
20260506085010 23 251 0.0 3.2 0.00 0.00 0.00 81 1020.7
20260506084913 23 251 0.0 3.2 0.00 0.00 0.00 81 1020.7
20260506084816 23 251 0.0 3.2 0.00 0.00 0.00 81 1020.7
20260506084719 23 251 0.0 3.2 0.00 0.00 0.00 81 1020.7
20260506084621 23 251 0.0 3.2 0.00 0.00 0.00 81 1020.7
20260506084507 23 251 1.6 3.2 0.00 0.00 0.00 81 1020.6
20260506084410 23 251 1.6 3.2 0.00 0.00 0.00 81 1020.7
20260506084310 23 251 1.6 3.2 0.00 0.00 0.00 81 1020.7
20260506084211 23 251 1.6 3.2 0.00 0.00 0.00 81 1020.7
20260506084114 23 251 1.6 3.2 0.00 0.00 0.00 81 1020.7
20260506084018 23 251 0.0 3.2 0.00 0.00 0.00 81 1020.7
20260506083920 23 251 0.0 3.2 0.00 0.00 0.00 81 1020.7
20260506083805 23 250 0.0 3.2 0.00 0.00 0.00 82 1020.7
20260506083706 23 250 0.0 3.2 0.00 0.00 0.00 82 1020.8
20260506083609 23 251 1.6 3.2 0.00 0.00 0.00 82 1020.8
20260506083531 23 251 1.6 3.2 0.00 0.00 0.00 82 1020.7
20260506083412 23 251 1.6 3.2 0.00 0.00 0.00 82 1020.8
20260506083314 23 251 1.6 3.2 0.00 0.00 0.00 82 1020.9
20260506083217 23 251 0.0 3.2 0.00 0.00 0.00 82 1020.8
20260506083105 23 251 0.0 3.2 0.00 0.00 0.00 82 1020.8
20260506083006 23 251 0.0 3.2 0.00 0.00 0.00 82 1020.8
20260506082927 23 251 0.0 3.2 0.00 0.00 0.00 82 1020.8
20260506082829 23 251 0.0 3.2 0.00 0.00 0.00 82 1020.9
20260506082710 23 251 1.6 3.2 0.00 0.00 0.00 82 1020.8
20260506082613 23 251 1.6 3.2 0.00 0.00 0.00 82 1020.8
20260506082515 23 251 1.6 3.2 0.00 0.00 0.00 82 1020.8
20260506082416 23 251 0.0 1.6 0.00 0.00 0.00 82 1020.8
20260506082304 23 251 0.0 1.6 0.00 0.00 0.00 81 1020.8
20260506082206 23 251 0.0 3.2 0.00 0.00 0.00 81 1020.7
20260506082108 23 251 0.0 3.2 0.00 0.00 0.00 81 1020.8
20260506082011 23 251 0.0 3.2 0.00 0.00 0.00 81 1020.8
20260506081914 23 251 0.0 4.8 0.00 0.00 0.00 81 1020.8
20260506081837 23 251 0.0 4.8 0.00 0.00 0.00 81 1020.8
20260506081716 23 251 0.0 4.8 0.00 0.00 0.00 81 1020.8
20260506081639 23 251 0.0 4.8 0.00 0.00 0.00 81 1020.8
20260506081504 23 251 0.0 4.8 0.00 0.00 0.00 81 1020.8
20260506081407 23 251 1.6 4.8 0.00 0.00 0.00 81 1020.8
20260506081310 23 251 3.2 4.8 0.00 0.00 0.00 82 1020.8
20260506081211 23 251 3.2 4.8 0.00 0.00 0.00 82 1020.8
20260506081134 23 251 3.2 4.8 0.00 0.00 0.00 82 1020.8
20260506081015 23 251 1.6 4.8 0.00 0.00 0.00 82 1020.9
20260506080919 23 251 1.6 3.2 0.00 0.00 0.00 82 1020.9
20260506080807 23 251 0.0 1.6 0.00 0.00 0.00 82 1020.9
20260506080709 23 251 0.0 1.6 0.00 0.00 0.00 82 1020.9
20260506080612 23 251 0.0 1.6 0.00 0.00 0.00 82 1020.8
20260506080515 23 251 0.0 1.6 0.00 0.00 0.00 82 1020.9
20260506080415 23 251 0.0 1.6 0.00 0.00 0.00 82 1021.0
20260506080339 23 251 0.0 1.6 0.00 0.00 0.00 82 1020.9
20260506080240 22 251 0.0 1.6 0.00 0.00 0.00 82 1020.8
20260506080119 23 251 0.0 1.6 0.00 0.00 0.00 82 1020.9
20260506073506 22 251 0.0 0.0 0.00 0.00 0.00 82 1021.2
20260506073409 22 251 0.0 0.0 0.00 0.00 0.00 82 1021.1
20260506073311 22 251 0.0 0.0 0.00 0.00 0.00 82 1021.2
20260506073213 22 251 0.0 0.0 0.00 0.00 0.00 82 1021.2
20260506073115 22 251 0.0 0.0 0.00 0.00 0.00 82 1021.2
20260506073018 22 251 0.0 0.0 0.00 0.00 0.00 82 1021.2
20260506072924 22 251 0.0 0.0 0.00 0.00 0.00 82 1021.2
20260506072826 22 251 0.0 0.0 0.00 0.00 0.00 82 1021.2
20260506072727 22 251 0.0 0.0 0.00 0.00 0.00 82 1021.3
20260506072630 22 251 0.0 0.0 0.00 0.00 0.00 82 1021.2
20260506072511 22 251 0.0 0.0 0.00 0.00 0.00 82 1021.2
20260506072414 22 251 0.0 0.0 0.00 0.00 0.00 82 1021.2
20260506072336 22 251 0.0 0.0 0.00 0.00 0.00 82 1021.2
20260506072217 22 251 0.0 0.0 0.00 0.00 0.00 82 1021.3
20260506072104 22 251 0.0 0.0 0.00 0.00 0.00 82 1021.3
20260506072007 22 251 0.0 0.0 0.00 0.00 0.00 82 1021.3
20260506071907 22 251 0.0 1.6 0.00 0.00 0.00 82 1021.3
20260506071810 22 251 0.0 3.2 0.00 0.00 0.00 82 1021.3
20260506071714 22 251 0.0 3.2 0.00 0.00 0.00 82 1021.4
20260506071617 22 251 0.0 4.8 0.00 0.00 0.00 82 1021.5
20260506071518 22 251 0.0 4.8 0.00 0.00 0.00 82 1021.3
20260506071440 22 251 0.0 4.8 0.00 0.00 0.00 82 1021.4
20260506071305 22 251 0.0 4.8 0.00 0.00 0.00 82 1021.4
20260506071207 22 251 0.0 4.8 0.00 0.00 0.00 82 1021.4
20260506071109 22 251 1.6 4.8 0.00 0.00 0.00 82 1021.3
20260506071011 22 251 1.6 4.8 0.00 0.00 0.00 82 1021.4
20260506070913 22 251 1.6 4.8 0.00 0.00 0.00 82 1021.4
20260506070816 22 251 3.2 4.8 0.00 0.00 0.00 82 1021.4
20260506070718 22 250 3.2 4.8 0.00 0.00 0.00 82 1021.5
20260506070605 22 250 1.6 3.2 0.00 0.00 0.00 82 1021.4
20260506070507 22 250 1.6 3.2 0.00 0.00 0.00 82 1021.5
20260506070411 22 250 1.6 3.2 0.00 0.00 0.00 82 1021.5
20260506070313 22 250 1.6 3.2 0.00 0.00 0.00 82 1021.5
20260506070216 22 250 1.6 3.2 0.00 0.00 0.00 82 1021.5
20260506070118 22 250 1.6 3.2 0.00 0.00 0.00 82 1021.6